Weather in Ucheykino

Russia / Mari El Republic     56°04′02″N   48°46′53″E
temp.,
°C
wind,
m/s
gust,
m/s
humid.,
%
clouds,
%
prec.,
mm/h
press.,
hPa
HPBL,
m
3 march, wed
wed300:00−7w359841 0.0 100084
03:00−6w379851 0.0 1000193
06:00−4w4109692 0.2 1000379
09:00−5wnw6109293 0.3 1001613
12:00−3nw71093100 0.4 1002851
15:00−5nw71088100 0.6 1004783
18:00−6wnw51092100 0.1 1004681
21:00−7wnw51092100 0.2 1005638
4 march, thu
thu400:00−11sw459790 0.1 100390
03:00−5wsw6139695 0.5 1001554
06:00−4wsw61294100 0.3 999607
09:00−3sw71294100 0.9 997781
12:00−1wsw81296100 0.9 994886
15:000w7129298 1.7 9931137
18:00−4w5148474 0.2 995484
21:00−6w4129187 0.2 997338
5 march, fri
fri500:00−8w3697100 0.0 998112
03:00−9wnw2398100 0.1 100027
06:00−11nnw2296100 0.0 100124
09:00−10n3493100 0.0 1001197
12:00−7n4588100 0.0 1002443
15:00−7nnw4684100 0.0 1005640
18:00−12nw359280 0.0 100884
21:00−15nw339444 0.0 101132
6 march, sat
sat600:00−17wnw23980 0.0 101220
03:00−18w22989 0.0 101320
06:00−18sw239945 0.0 101220
09:00−14sw349542 0.0 1012167
12:00−9sw359081 0.0 1012348
15:00−9wsw469262 0.1 1011474
18:00−11wsw3796100 0.1 1011172
21:00−16nw239094 0.2 101121
7 march, sun
sun700:00−19w239921 0.0 101120
03:00−19wsw349924 0.0 101259
06:00−19sw359999 0.1 101186
09:00−15sw479397 0.1 1010259
12:00−11ssw6108698 0.0 1008473
15:00−9s8138999 0.0 1005795
18:00−8s81593100 0.5 1002916
21:00−7s91594100 1.7 9971043